Location: Goettingen
(51.5300°N, 9.9433°E)
Time: 13:37:39
(UTC+01:00)

ISS - Pass Details

Date: 22 November 2023
Orbit: 416 x 417 km, 51.6° (Epoch: 02 December)

Event Time Altitude Azimuth Distance (km) Brightness Sun altitude
Rises 17:25:35 0° 229° (SW) 2,352 1.6 -9.6°
Reaches altitude 10° 17:27:46 10° 220° (SW) 1,492 0.1 -9.9°
Maximum altitude 17:30:52 36° 153° (SSE) 681 -2.8 -10.4°
Enters shadow 17:33:14 15° 90° (E) 1,220 -2.0 -10.7°
